Location: Quaker Farms
(41.4276°N, 73.1557°W)
Time: 19:34:12
(UTC+00:00)

S-56A Canister/Altair - Pass Details

Date: 18 June 2021
Orbit: 631 x 2501 km, 38.9° (Epoch: 30 July)

Event Time Altitude Azimuth Distance (km) Brightness Sun altitude
Rises 15:33:05 0° 276° (W) 3,576 10.7 65.3°
Reaches altitude 10° 15:35:42 10° 264° (W) 2,841 10.4 65.7°
Maximum altitude 15:41:30 28° 207° (SSW) 2,246 10.4 66.5°
Drops below altitude 10° 15:49:27 10° 154° (SSE) 3,984 11.7 67.5°
Sets 15:53:56 0° 145° (SE) 5,304 12.1 68.1°
